AirNav   Everest Fuels
 
 768 users online  

T92 Mason County Airport
Mason, Texas, USA

GOING TO MASON?


FAA INFORMATION EFFECTIVE 30 JANUARY 2020

Location

FAA Identifier: T92
Lat/Long: 30-43-55.8949N 099-11-02.4215W
30-43.931582N 099-11.040358W
30.7321930,-99.1840060
(estimated)
Elevation: 1514 ft. / 461.5 m (surveyed)
Variation: 05E (2015)
From city: 3 miles SE of MASON, TX
Time zone: UTC -6 (UTC -5 during Daylight Saving Time)
Zip code: 76856

Airport Operations

Airport use: Open to the public
Activation date: 02/1945
Control tower: no
ARTCC: HOUSTON CENTER
FSS: SAN ANGELO FLIGHT SERVICE STATION
NOTAMs facility: SJT (NOTAM-D service available)
Attendance: UNATNDD
Wind indicator: lighted
Segmented circle: yes
Lights: SS-SR
Beacon: white-green (lighted land airport)
Operates sunset to sunrise.

Airport Communications

CTAF: 122.9
  • APCH/DEP SVC PRVDD BY HOUSTON ARTCC ON FREQS 132.35/317.5 (LOMETA RCAG).

Nearby radio navigation aids

VOR radial/distance  VOR name  Freq  Var
LLOr251/20.8LLANO VORTAC108.2008E
JCTr068/33.7JUNCTION VORTAC116.0008E

Airport Services

Fuel available: 100LL
FUEL AVBL 24 HRS WITH CREDIT CARD. FOR ASSITANCE CALL 325-347-5252.
Parking: tiedowns
Bottled oxygen: NONE
Bulk oxygen: NONE

Runway Information

Runway 18/36

Dimensions: 3716 x 50 ft. / 1133 x 15 m
Surface: asphalt, in fair condition
Runway edge lights: low intensity
Runway edge markings: MARKINGS FADED
RUNWAY 18  RUNWAY 36
Latitude: 30-44.238930N30-43.626155N
Longitude: 099-11.051268W099-11.064108W
Elevation: 1501.8 ft.1497.9 ft.
Traffic pattern: leftleft
Runway heading: 176 magnetic, 181 true356 magnetic, 001 true
Markings: nonprecision, in poor conditionnonprecision, in poor condition
Touchdown point: yes, no lightsyes, no lights
Obstructions: 23 ft. trees, 200 ft. from runway, 182 ft. left of centerline
+12-25 FT TREES 170 FT L OF CNTRLN 0-200 FT FM END OF RY.
12 ft. brush, 200 ft. from runway, 162 ft. right of centerline
+14-23 FT TREES & BRUSH 0-200 FT FM THLD 165-200 FT L OF CNTRLN; 6 FT HAY BALES 90 FT - 137 FT FM THLD AT 143 FT L; +12-16 FT BRUSH & TREES 0-200 FT FM THLD AT 165 FT R OF CNTRLN.

Airport Ownership and Management from official FAA records

Ownership: Publicly-owned
Owner: MASON COUNTY
COURTHOUSE
MASON, TX 76856
Phone 325-347-5556
Manager: JERRY BEARDEN, CO JUDGE
COUNTY COURTHOUSE
MASON, TX 76856
Phone 325-347-5556

Airport Operational Statistics

Aircraft based on the field: 5
Single engine airplanes: 5
    
Aircraft operations: avg 38/week *
60% transient general aviation
40% local general aviation
* for 12-month period ending 17 March 2017

Additional Remarks

HEAVY TRANSIENT UTILIZATION OF ARPT DURING NOV-JAN.
DEER ON AND IN VICINITY OF RWY.
FOR CD CTC HOUSTON ARTCC AT 281-230-5622.

Instrument Procedures

NOTE: All procedures below are presented as PDF files. If you need a reader for these files, you should download the free Adobe Reader.

NOT FOR NAVIGATION. Please procure official charts for flight.
FAA instrument procedures published for use from 30 January 2020 at 0901Z to 27 Feburary 2020 at 0900Z.

 
IAPs - Instrument Approach Procedures
RNAV (GPS) RWY 18   download (160KB)
RNAV (GPS) RWY 36   download (165KB)
VOR-A   download (136KB)
NOTE: Special Take-Off Minimums/Departure Procedures apply   download (504KB)

Other nearby airports with instrument procedures:

KAQO - Llano Municipal Airport (27 nm E)
KBBD - Curtis Field Airport (28 nm N)
T82 - Gillespie County Airport (33 nm SE)
KJCT - Kimble County Airport (33 nm SW)
KERV - Kerrville Municipal Airport/Louis Schreiner Field (46 nm S)
 
Loc | Ops | Rwys | IFR | FBO | Links
Com | Nav | Svcs | Stats | Notes
Area around T92 (Mason County Airport)
 
Road maps at: MapQuest Bing Google
 
Aerial photo
WARNING: Photo may not be current or correct
Aerial photo of T92 (Mason County Airport)
Do you have a better or more recent aerial photo of Mason County Airport that you would like to share? If so, please send us your photo.

 
Sectional chart

 
Airport distance calculator
Flying to Mason County Airport? Find the distance to fly.

From to T92

Sunrise and sunset
Times for 17-Feb-2020
 Local
(UTC-6)
 Zulu
(UTC)
Morning civil twilight06:5212:52
Sunrise07:1713:17
Sunset18:2500:25
Evening civil twilight18:5000:50

Current date and time
Zulu (UTC)  18-Feb-2020 04:23:10
Local (UTC-6)  17-Feb-2020 22:23:10
 
METAR
KAQO 
27nm E 
180350Z AUTO 00000KT 10SM CLR 17/15 A2987 RMK AO2 PWINO
KBBD 
28nm N 
180355Z AUTO 17005KT 10SM CLR 19/15 A2983 RMK AO2
KT82 
32nm SE 
180355Z AUTO 00000KT 10SM CLR 14/13 A2987 RMK AO2 T01410132
KJCT 
33nm SW 
180351Z AUTO 00000KT 10SM CLR 19/15 A2986 RMK AO2 SLP081 T01890150
KDZB 
44nm E 
180357Z AUTO 17005KT 10SM CLR 21/17 A2985 RMK AO2
KERV 
45nm S 
180355Z AUTO 00000KT 7SM CLR 16/15 A2986 RMK AO2 T01610146
KBMQ 
49nm E 
180353Z AUTO 17004KT 10SM CLR 19/17 A2987 RMK AO2 SLP103 T01890167 $
TAF
KBBD 
28nm N 
171738Z 1718/1818 21011KT P6SM FEW250 FM180600 01005KT P6SM OVC250 FM181000 35009KT P6SM BKN015 FM181200 VRB04KT 4SM BR BKN007 FM181600 36015G24KT P6SM OVC015
KJCT 
33nm SW 
172203Z 1722/1818 24009KT P6SM SCT180 BKN250 FM180500 03007KT P6SM BKN250 FM180900 VRB03KT P6SM BKN015 FM181200 VRB04KT 4SM BR OVC007 FM181700 02008KT P6SM OVC015
NOTAMs
Click for the latest NOTAMs
NOTAMs are issued by the DoD/FAA and will open in a separate window not controlled by AirNav.

 

 
 

FBO, Fuel Providers, and Aircraft Ground Support

  
 Business Name 
 
 Contact 
 
 Services / Description 
 
Fuel Prices
 
Comments
  
Mason County Airport 325-347-8255
no information available

If you are affiliated with Mason County Airport and would like to show here your services, contact info, web link, logo, and more, click here
100LL
SS $4.25 
 Updated 13-Feb-2020
 
   2 read write
SS=Self service
Update Fuel Prices
 

Would you like to see your business listed on this page?

 If your business provides an interesting product or service to pilots, flight crews, aircraft, or users of the Mason County Airport, you should consider listing it here.  To start the listing process, click on the button below
 
Add a business
 

Other Pages about Mason County Airport

Update a link
 
Copyright © AirNav, LLC. All rights reserved. Privacy Policy  Contact